Regional Weather Roundup
Issued by NWS

Home | Current Version | Previous Version | Text Only | Print | Product List | Glossary On
Versions: 1 2 3 4 5 6 7 8 9 10 11 12 13 14 15 16 17 18 19 20 21 22 23 24 25 26 27 28 29 30 31 32 33 34 35 36 37 38 39 40 41 42 43 44 45 46 47 48 49 50
000
ASUS43 KDMX 031007
RWRIA

WEATHER ROUNDUP FOR IOWA
NATIONAL WEATHER SERVICE DES MOINES IA
500 AM CDT SUN MAY 03 2015

NOTE: "FAIR" INDICATES FEW OR NO CLOUDS BELOW 12,000 FEET WITH NO
SIGNIFICANT WEATHER AND/OR OBSTRUCTIONS TO VISIBILITY.

* - THESE STATIONS ARE NOT NWS STATIONS...THUS NOT UNDER NWS
QUALITY CONTROL.  THEY ALSO DO NOT REPORT WEATHER SUCH
AS PRECIPITATION OR FOG.

IAZ001>003-012>014-020>022-031>034-043>046-031100-
   NORTHWEST IOWA

CITY           SKY/WX    TMP DP  RH WIND       PRES   REMARKS
CARROLL *      MOCLDY    63  55  77 S7G16     29.75R
CHEROKEE *     CLOUDY    52  50  93 CALM      29.72S
DENISON *      CLEAR     63  55  77 S20G31    29.69F
LE MARS *      CLEAR     59  52  77 S6        29.71F
ORANGE CITY *  CLEAR     57  52  82 S9        29.70F
SHELDON *      CLEAR     55  55 100 SE8       29.69F
SIOUX CITY     PTCLDY    59  49  69 S10       29.71R
SPENCER        CLOUDY    53  51  93 SE7       29.73S
STORM LAKE *   CLEAR     54  52  94 CALM      29.74S
$$

IAZ055>058-069>071-079>083-090>094-031100-
   SOUTHWEST IOWA

CITY           SKY/WX    TMP DP  RH WIND       PRES   REMARKS
ATLANTIC *     CLOUDY    61  59  94 S17G26    29.75F
AUDUBON *      CLEAR     61  55  82 S15G23    29.75R
CLARINDA *     MOCLDY    59  57  94 CALM      29.85F
COUNCIL BLFS * CLEAR     61  61 100 SE7       29.78S
CRESTON *      CLOUDY    59  59 100 S12       29.83F
HARLAN  *      CLEAR     59  59 100 S10       29.78F
LAMONI         CLOUDY    59  53  80 S6        29.87F
RED OAK *      CLOUDY    61  59  94 S10       29.79F
SHENANDOAH *   CLEAR     63  57  82 SE10      29.83F
$$

IAZ047>049-059>061-072>074-084-031100-
   CENTRAL IOWA

CITY           SKY/WX    TMP DP  RH WIND       PRES   REMARKS
AMES           CLOUDY    56  51  84 SE12      29.77F
ANKENY *       PTCLDY    61  54  77 S7G15     29.78F
CHARITON *     CLOUDY    57  52  82 S9        29.86F
DES MOINES     LGT RAIN  62  54  74 S13       29.78F
GRINNELL*      CLOUDY    55  50  82 SE8       29.86F
KNOXVILLE *    CLOUDY    59  52  77 S10       29.83F
MARSHALLTOWN   CLOUDY    58  52  80 SE16G22   29.81F
PELLA *        CLOUDY    55  54  94 S7        29.86F
PERRY *        DRIZZLE   61  57  88 SW9       29.77R
$$

IAZ004>006-015-016-023>025-035-036-031100-
   NORTH CENTRAL IOWA

CITY           SKY/WX    TMP DP  RH WIND       PRES   REMARKS
ALGONA *       CLEAR     55  54  94 SE12G17   29.76S
CLARION *      PTCLDY    59  52  77 SE14      29.77S
ESTHERVILLE    CLOUDY    53  50  89 S9        29.74S
FORT DODGE *   CLOUDY    57  52  82 SE6       29.76F
MASON CITY     CLOUDY    56  51  84 S12       29.79F
FOREST CITY *  PTCLDY    54  50  87 SE8       29.78S
IOWA FALLS *     N/A     61  52  72 SE14G20   29.80F
$$

IAZ007>011-017>019-026>030-037>042-050>054-066-031100-
   NORTHEAST IOWA

CITY           SKY/WX    TMP DP  RH WIND       PRES   REMARKS
CEDAR RAPIDS   CLOUDY    61  50  67 S13       29.87
CHARLES CITY * MOCLDY    57  50  77 S12       29.82S
CLINTON *        N/A     55  46  71 S8        29.94F
DECORAH *      CLOUDY    59  48  67 S8        29.83S
DUBUQUE        CLOUDY    58  49  72 S14       29.89F
MONTICELLO *   PTCLDY    55  52  88 SE8       29.88F
OELWEIN *      PTCLDY    57  50  77 S12       29.86R
WATERLOO       CLOUDY    58  50  75 S15       29.83S
$$

IAZ064-065-067-068-078-031100-
   EAST CENTRAL IOWA

CITY           SKY/WX    TMP DP  RH WIND       PRES   REMARKS
DAVENPORT      CLOUDY    62  45  53 S18G24    29.92S
IOWA CITY      CLOUDY    61  53  75 S9        29.90F
MT. PLEASANT * CLOUDY    55  48  76 SE5       29.92R
MUSCATINE *    CLOUDY    59  54  82 SE7       29.91F
QUAD CITIES    LGT RAIN  62  46  55 S9G22     29.91F
$$

IAZ062-063-075>077-085>089-095>099-031100-
   SOUTHEAST IOWA

CITY           SKY/WX    TMP DP  RH WIND       PRES   REMARKS
BURLINGTON     CLOUDY    60  48  64 S8        29.92S
FAIRFIELD *    MOCLDY    55  50  82 SE8       29.89S
FORT MADISON * CLEAR     57  48  72 S9        29.92S
KEOKUK *       CLEAR     61  48  63 S9        29.91S
OSKALOOSA *    MOCLDY    55  50  82 S8        29.87S
CENTERVILLE *  PTCLDY    59  54  82 S10       29.89R
OTTUMWA        CLOUDY    56  51  84 S8        29.87S
WASHINGTON *   PTCLDY    57  57 100 SE9       29.91R
$$

ABBREVIATIONS USED IN REMARKS
   TC - TEMPERATURES IN CELSIUS
  WCI - WIND CHILL INDEX
   HX - HEAT INDEX
  VSB - VISIBILITY
$$




USA.gov is the U.S. government's official web portal to all federal, state and local government web resources and services.